Theta_e
305 306 307 307 307 305 303 307 307 306 306 306 306 306 307 307 311 315 316 310 310 330 327 327 327 326 328 344 347 351 363 361 361 365 360 355 358 353 355 356 353 352 352 349 347
305 307 307 307 307 307 304 308 307 307 307 307 306 306 306 311 315 317 312 310 316 318 316 317 323 324 330 335 344 355 359 359 356 356 359 351 355 359 361 357 355 354 350 348 347
307 307 308 308 307 307 305 307 307 307 308 309 306 306 308 312 320 325 324 314 317 318 318 317 321 324 331 333 338 341 351 350 356 354 356 352 353 356 359 360 357 354 351 348 347
307 307 308 308 307 307 306 307 307 307 310 310 308 307 312 317 327 326 319 316 319 317 317 317 320 327 332 335 335 340 341 343 346 356 354 350 352 355 356 357 353 349 348 348 346
307 307 307 307 307 307 307 306 307 307 309 310 312 312 318 321 322 321 321 319 319 317 316 316 322 329 334 332 335 337 338 339 341 349 355 354 355 354 355 355 353 350 349 349 348
307 307 307 306 306 306 307 306 307 307 309 311 311 311 314 314 321 320 324 317 317 317 319 316 321 332 336 335 335 336 336 337 337 355 356 361 358 347 350 354 354 351 349 349 345
307 307 306 306 306 306 306 306 307 307 309 312 314 314 319 314 322 321 324 324 322 317 318 319 318 328 335 337 333 335 333 327 328 352 362 357 356 352 354 353 354 352 350 349 344
307 306 306 306 306 306 306 305 308 308 309 311 317 321 322 327 324 322 322 325 328 324 319 319 321 326 334 333 330 331 324 325 325 328 359 354 365 358 357 353 355 353 350 349 346
306 306 306 306 306 306 306 306 310 311 311 310 319 321 326 322 316 316 317 317 320 326 323 321 321 321 327 329 326 325 331 328 324 324 347 353 364 358 353 357 355 353 352 349 347
305 305 306 306 307 307 305 309 313 314 315 321 322 321 320 323 316 316 316 317 326 324 325 324 321 323 325 326 329 331 331 324 323 323 325 361 364 358 351 357 358 355 352 351 348
306 306 307 308 308 306 307 311 309 315 320 324 324 323 320 316 315 316 317 317 319 323 324 325 327 329 330 327 326 326 327 326 327 326 322 337 362 356 351 354 355 353 351 349 350
306 307 308 309 308 305 308 311 314 314 313 315 320 319 321 317 314 315 318 316 324 326 327 329 330 328 327 328 327 327 327 325 324 326 324 355 364 358 352 347 352 346 352 350 349
307 307 309 310 306 312 311 314 317 315 311 313 313 314 313 313 313 315 319 319 324 325 329 329 328 330 330 328 329 327 325 325 325 326 324 357 364 363 356 350 347 348 349 349 349
308 308 309 306 313 307 313 316 315 314 309 313 316 313 313 313 313 317 315 315 318 325 326 327 329 328 328 328 327 327 325 325 326 323 322 322 332 360 358 355 354 350 351 350 351
309 309 310 310 307 310 316 315 315 312 318 316 312 314 312 311 313 314 315 314 315 316 314 316 323 327 328 327 325 326 325 323 324 321 320 321 320 326 351 351 350 351 355 350 350
310 310 310 313 310 316 315 315 315 311 319 314 313 313 312 312 313 314 314 314 314 315 315 315 317 318 320 322 321 324 323 320 318 318 320 320 321 330 354 352 351 350 353 351 348
311 312 310 308 312 314 316 311 314 317 316 314 312 312 311 311 313 313 313 314 312 313 313 313 315 314 316 316 318 321 317 319 322 321 320 319 320 320 347 346 349 350 352 348 348
312 313 313 312 311 314 314 313 320 319 318 317 316 314 313 314 313 314 314 312 313 312 311 313 314 314 315 314 316 316 317 319 324 323 321 320 322 322 326 336 345 346 347 343 340
315 314 317 317 317 315 310 317 316 317 316 317 317 317 317 317 314 314 313 313 313 312 315 314 316 316 316 315 315 315 319 317 319 318 321 322 322 323 323 323 345 347 341 340 340
316 315 317 317 317 315 314 321 316 315 315 315 317 316 316 316 316 314 314 314 315 314 311 312 314 313 315 314 314 312 313 317 315 324 324 323 324 323 325 332 335 351 348 341 340
317 316 317 317 317 312 320 321 315 314 314 315 315 315 314 314 314 314 314 315 315 314 312 311 311 312 314 313 315 313 312 311 313 317 321 322 322 321 327 329 331 331 334 346 341
312 314 314 316 313 312 312 313 313 312 312 313 313 313 313 313 313 313 315 315 314 313 314 312 310 312 314 314 314 314 312 311 313 316 319 320 323 328 328 326 328 331 332 335 344
312 315 315 316 313 312 311 312 312 312 310 312 312 310 310 311 313 312 313 313 315 315 315 312 310 312 313 311 312 314 313 313 312 309 315 318 319 323 324 326 330 331 337 340 343
312 312 309 306 307 312 312 312 313 313 312 310 309 309 309 310 309 311 312 313 313 315 319 311 308 311 313 313 312 314 314 312 312 311 313 313 316 321 323 326 329 331 329 345 345
309 311 310 311 309 309 309 311 312 312 311 309 312 311 310 310 309 311 311 309 311 313 312 310 312 314 314 314 314 315 315 315 313 314 315 313 313 320 317 322 324 330 328 333 337
312 312 311 309 310 309 308 311 312 313 312 311 312 312 310 311 311 311 309 308 310 307 308 310 315 314 314 314 313 314 314 314 314 314 314 314 314 316 322 324 328 325 327 335 339
315 315 309 310 310 309 311 313 313 312 312 312 312 311 311 312 311 309 307 306 307 309 307 310 312 311 312 314 313 313 312 314 314 314 315 317 313 322 326 327 327 329 329 336 336
Wind_Speed
25 25 25 26 26 25 23 21 17 16 17 17 16 16 16 15 13 6 7 9 13 15 10 10 10 10 7 4 5 2 3 2 0 1 2 7 4 6 12 9 7 5 13 27 37
25 26 27 27 27 26 25 22 17 17 17 17 16 15 13 11 11 12 15 14 12 12 10 11 7 8 3 5 3 7 4 6 8 9 5 11 8 8 3 12 7 5 19 28 34
26 26 26 27 28 27 26 24 17 17 17 16 14 10 7 7 3 7 4 20 14 10 16 8 7 4 5 3 6 6 7 9 10 4 11 11 9 10 7 10 9 22 22 24 27
27 28 28 28 28 27 27 25 18 17 15 13 11 7 3 2 2 2 4 17 17 12 11 7 4 5 6 7 7 4 10 12 14 12 13 9 8 4 9 3 9 25 26 25 21
29 30 30 29 29 28 27 25 18 18 13 12 9 3 2 0 8 6 5 13 15 16 13 7 6 6 4 7 12 8 18 15 16 14 18 15 4 3 9 6 12 16 18 21 16
29 29 30 31 30 29 29 25 18 17 10 10 4 2 1 3 2 11 10 14 13 18 13 11 8 10 4 10 7 7 10 13 9 19 18 18 8 3 6 9 15 17 18 17 14
29 32 31 31 31 30 29 26 18 14 8 7 4 3 2 11 3 13 12 11 16 20 6 22 13 3 4 8 9 10 7 8 4 15 14 19 6 7 4 7 20 18 17 15 15
31 32 32 31 30 30 29 24 17 14 8 4 1 2 7 6 8 15 16 14 13 18 20 14 14 6 5 6 6 4 4 4 6 3 16 7 9 9 9 15 21 21 18 15 16
31 32 32 31 30 29 29 21 19 10 4 1 2 2 8 9 4 11 13 8 16 16 18 6 5 6 3 3 5 7 1 4 9 6 20 7 6 8 4 13 21 19 19 18 14
31 30 30 31 30 28 25 20 6 3 4 1 6 3 6 4 7 4 8 4 5 5 2 2 2 2 4 4 3 3 3 4 5 6 2 5 9 13 17 8 11 16 3 11 14
30 31 31 32 29 25 21 4 4 3 3 7 5 4 8 2 6 5 6 3 3 4 4 4 3 4 8 6 6 3 2 8 14 12 5 7 18 22 12 15 14 12 15 12 13
31 32 34 35 26 15 7 0 4 4 6 9 16 13 22 11 3 3 10 3 4 4 3 4 4 7 5 6 7 6 6 10 11 5 3 9 14 22 17 17 20 20 23 19 16
31 34 36 32 17 4 5 8 10 19 1 8 6 5 6 5 3 5 5 3 2 5 5 6 9 8 7 7 7 6 5 8 10 10 0 14 6 12 11 9 12 9 8 13 22
31 35 34 28 3 15 6 18 14 1 4 6 3 3 3 5 2 8 4 3 3 9 6 5 14 9 9 10 5 6 8 10 8 3 2 2 4 10 15 13 14 13 12 14 18
31 35 29 13 11 6 13 21 20 4 2 3 1 1 3 6 5 3 2 4 1 3 6 6 6 7 10 8 9 11 12 8 2 3 5 3 4 2 16 12 18 18 13 12 16
35 30 23 5 11 9 22 22 5 5 1 3 4 3 4 2 1 5 3 3 1 1 1 6 4 4 5 5 4 11 4 5 5 4 2 3 4 2 15 24 15 13 17 17 18
34 19 11 7 4 13 21 5 5 2 8 5 3 4 5 5 3 5 5 1 3 3 3 6 5 4 5 4 6 3 6 3 4 2 6 2 4 8 18 13 22 22 25 20 19
22 9 6 10 8 12 12 5 8 7 5 5 5 4 6 4 4 3 3 5 6 3 2 3 6 8 7 4 3 4 7 6 6 3 2 5 3 6 11 10 23 25 24 19 16
18 4 7 5 6 6 5 5 1 4 6 9 8 6 9 7 5 2 7 10 9 8 5 4 5 2 10 4 1 7 1 6 4 3 4 3 7 9 11 6 12 20 18 22 15
13 7 6 6 3 3 5 6 4 4 7 6 7 6 8 9 6 7 6 8 4 10 4 5 4 4 7 7 9 7 4 4 3 2 2 4 2 6 9 13 8 5 15 21 15
5 4 8 3 7 5 3 2 9 14 13 9 7 6 5 5 5 5 7 4 9 7 10 5 3 7 4 5 4 7 6 5 0 4 5 3 5 1 4 6 3 7 11 26 23
7 4 28 3 4 0 3 4 8 9 10 7 8 8 5 7 6 5 4 2 7 3 4 4 3 3 5 4 5 4 6 5 4 7 1 5 4 3 7 5 9 13 19 12 25
3 3 25 14 4 4 5 12 12 10 8 5 8 7 6 5 5 9 6 13 11 6 4 5 4 4 10 6 8 6 7 4 3 2 1 5 4 4 7 11 13 19 26 10 18
3 4 5 5 1 5 6 9 5 10 9 7 6 9 8 8 6 5 9 9 10 8 12 6 4 5 3 2 5 8 14 8 4 2 8 5 8 10 11 11 13 18 23 17 14
3 1 2 3 5 7 8 4 9 6 6 9 7 10 4 6 6 5 7 7 6 12 6 5 2 4 3 6 10 13 13 12 7 4 2 10 12 6 8 7 8 13 14 15 12
3 3 5 3 3 9 7 5 4 2 5 3 6 6 7 5 2 3 5 4 3 7 5 6 1 4 2 4 9 12 15 11 12 9 5 10 11 6 3 10 16 9 11 12 18
7 5 4 6 4 5 2 2 1 3 5 5 5 3 5 3 4 5 5 5 6 3 2 1 2 3 2 4 5 7 4 3 8 7 3 5 6 7 9 10 13 12 10 8 9
Wind_Direction
356 355 354 353 352 349 348 344 337 335 329 323 317 312 318 318 312 285 235 214 196 153 146 168 201 197 189 210 213 213 261 239 308 209 237 150 84 8 337 192 162 200 151 155 153
353 352 351 350 350 348 345 342 334 334 329 323 316 309 316 322 312 254 254 193 175 189 172 173 184 181 182 204 228 197 200 228 190 161 198 163 137 120 229 198 186 123 139 153 153
350 349 348 347 347 345 343 341 333 334 332 326 321 322 325 331 302 250 299 181 185 186 188 184 182 174 203 190 216 230 233 235 201 165 144 140 126 137 173 232 208 158 152 163 157
348 346 345 343 343 342 342 339 332 334 331 337 329 328 342 357 275 280 123 175 181 186 178 168 144 172 198 217 222 278 263 248 251 172 152 150 125 184 178 162 191 165 158 161 158
347 345 342 341 340 338 337 337 331 330 323 325 330 343 75 355 252 195 163 183 195 195 189 170 163 163 197 204 237 239 256 261 261 195 142 138 205 258 207 157 175 180 166 162 166
344 342 340 339 337 335 332 332 328 330 320 325 307 290 168 283 240 182 168 172 190 190 196 176 194 206 267 234 215 250 258 265 275 135 156 160 161 68 206 139 159 174 173 171 164
342 339 337 336 334 332 328 327 323 323 317 330 328 169 263 238 143 195 183 204 192 189 172 206 218 281 359 326 235 245 277 292 265 148 153 128 90 274 264 185 165 178 172 186 167
341 337 335 333 331 328 325 321 319 311 300 318 28 175 247 263 273 249 230 228 214 207 210 211 215 266 199 257 316 5 69 338 299 104 164 158 186 230 228 176 164 181 177 185 180
337 335 334 330 329 326 322 322 313 297 249 205 185 190 270 324 223 235 224 225 220 207 218 227 189 212 309 285 7 15 255 313 313 281 161 227 132 178 321 161 165 176 180 176 181
335 335 335 330 329 327 322 324 316 116 130 221 266 308 269 219 211 190 211 200 190 172 143 208 131 250 353 83 210 269 319 319 246 313 25 116 133 149 156 181 166 160 140 185 188
337 338 336 331 327 331 332 357 25 42 196 198 197 249 290 324 174 197 201 154 134 99 164 194 111 210 245 189 193 231 246 288 288 281 255 193 157 180 169 163 165 174 163 186 198
338 340 337 331 327 322 315 17 212 229 303 240 249 248 259 270 0 278 174 115 110 183 180 348 227 229 236 229 247 266 251 273 285 257 272 153 192 177 187 192 177 199 176 175 191
341 341 338 333 330 44 302 262 311 312 54 292 224 213 223 155 211 241 123 163 211 176 186 171 240 230 244 267 234 249 214 252 250 303 360 108 133 185 214 213 224 266 225 183 184
341 342 339 335 24 335 280 340 357 78 58 281 189 243 126 138 338 153 145 132 25 196 204 206 242 220 226 246 214 271 229 245 269 44 264 91 195 204 203 209 237 235 217 212 200
339 339 339 337 319 307 330 346 343 73 64 168 86 202 137 132 145 4 48 46 105 303 75 263 248 235 228 221 220 240 258 242 236 83 348 55 95 266 179 219 212 216 201 200 196
335 338 334 316 316 336 340 334 342 53 198 141 131 167 91 202 235 156 82 66 190 284 261 237 241 204 210 240 216 240 223 21 56 99 354 150 127 213 177 211 217 219 213 199 183
333 336 313 280 262 333 340 7 58 69 326 1 163 148 174 212 171 150 142 53 125 60 356 334 301 289 16 349 346 98 72 12 347 0 216 143 62 227 211 195 201 206 216 210 192
338 342 317 267 271 307 346 49 54 26 357 337 352 129 147 178 16 71 59 20 51 149 90 58 333 15 352 41 338 280 148 153 192 203 263 334 225 258 210 203 202 201 211 208 209
346 344 306 307 281 288 57 52 28 360 337 344 348 41 15 9 56 75 97 16 34 23 91 46 284 319 43 342 66 303 114 181 121 141 81 243 298 324 17 328 204 200 201 212 211
344 317 272 351 160 118 67 39 71 38 8 23 40 35 34 0 46 34 30 345 17 23 64 343 340 355 321 21 37 93 282 343 18 180 191 278 232 237 40 31 16 273 241 237 220
2 6 338 353 165 49 112 105 64 33 30 31 359 36 84 21 36 45 4 51 29 341 64 31 73 298 33 48 352 351 2 359 184 148 151 167 260 204 76 98 191 272 341 232 220
357 34 350 115 46 338 61 26 82 19 20 29 47 61 59 19 29 71 70 40 358 33 41 331 125 307 259 260 266 165 62 73 53 311 239 139 271 90 86 13 16 357 345 285 216
38 282 19 58 60 17 35 77 76 49 26 24 30 43 34 51 69 34 33 13 32 46 41 337 16 7 337 12 16 31 21 64 246 339 259 120 255 117 10 40 26 6 1 327 184
67 28 342 32 22 116 98 40 62 26 38 40 62 49 36 30 20 39 16 4 16 27 50 66 72 123 208 229 284 319 333 357 95 18 331 262 338 3 5 15 19 33 25 28 42
51 310 206 356 1 56 64 49 50 21 12 23 41 49 57 25 20 22 6 352 2 24 13 87 64 36 316 346 335 319 321 333 311 217 223 298 316 340 352 359 12 59 42 35 37
84 44 2 36 38 53 29 358 61 27 51 35 82 28 44 71 90 320 25 27 295 354 33 360 281 348 355 27 3 316 307 306 295 294 266 301 300 348 329 44 25 20 73 36 34
13 11 97 326 27 69 342 301 299 82 353 64 105 84 12 334 290 253 211 199 233 295 332 335 110 40 286 11 1 305 293 336 313 317 299 316 290 329 13 60 32 11 2 80 58